Terug naar catalogus

DELTA 1 DEB

ActiefLEO
NORAD 7088·DEBRIS·🇺🇸 United States

Gelanceerd Nov 6, 1973 vanaf Vandenberg Space Force Base

Loading…

Volgende Passages (komende 24 uur)

TLE

VersSource: Space-Track

Epoch: Sep 13, 2026, 18:40 UTC

1 07088U 73086CG  26256.77790674  .00000209  00000-0  94172-3 0  9992
2 07088 102.4018 195.4091 0257286 288.6243  96.6499 12.84636987463924

Volg DELTA 1 DEB in realtime met AllMySat

Download on the App Store